When you browse on this site, cookies collect data to enhance your experience and personalize the content and advertising you see.
Visit our Privacy Policy to learn more. By continuing to use the site, you agree to this use of cookies and data.
  • In United Kingdom
  • List of Countries
  • For 7 days
  • Water Temperature
  • Satellite Maps
  • Weather Map
  • Weather Widgets
  • user-avatar
    Login

    Hourly Weather Kudowa-Zdrój

    Today, 21 March, Thursday

    Time Temperature Precipitation Wind Pressure Humidity
    00:00 +3°C° 0 mm 1 mps 735 mmHg 73%
    01:00 +3°C° 0 mm 1 mps 736 mmHg 72%
    02:00 +3°C° 0 mm 1 mps 735 mmHg 72%
    03:00 +3°C° 0 mm 1 mps 735 mmHg 73%
    04:00 +2°C° 0 mm 1 mps 735 mmHg 74%
    05:00 +3°C° 0 mm 1 mps 735 mmHg 73%
    06:00 +3°C° 0 mm 1 mps 736 mmHg 73%
    07:00 +3°C° 0 mm 1 mps 736 mmHg 72%
    08:00 +5°C° 0 mm 1 mps 736 mmHg 67%
    09:00 +7°C° 0 mm 1 mps 736 mmHg 63%
    10:00 +9°C° 0 mm 1 mps 736 mmHg 58%
    11:00 +10°C° 0 mm 1 mps 736 mmHg 57%
    12:00 +12°C° 0 mm 2 mps 736 mmHg 56%
    13:00 +13°C° 0 mm 2 mps 736 mmHg 55%
    14:00 +13°C° 0 mm 2 mps 736 mmHg 56%
    15:00 +13°C° 0 mm 1 mps 735 mmHg 56%
    16:00 +13°C° 0 mm 1 mps 735 mmHg 57%
    17:00 +12°C° 0 mm 1 mps 735 mmHg 64%
    18:00 +10°C° 0 mm 1 mps 735 mmHg 70%
    19:00 +8°C° 0 mm 0 mps 735 mmHg 77%
    20:00 +7°C° 0 mm 0 mps 735 mmHg 79%
    21:00 +7°C° 0 mm 0 mps 735 mmHg 81%
    22:00 +6°C° 0 mm 0 mps 735 mmHg 83%
    23:00 +6°C° 0 mm 0 mps 735 mmHg 84%

    Tomorrow, 22 March, Friday

    Time Temperature Precipitation Wind Pressure Humidity
    00:00 +6°C° 0 mm 0 mps 735 mmHg 85%
    01:00 +6°C° 0 mm 0 mps 735 mmHg 86%
    02:00 +6°C° 0 mm 0 mps 735 mmHg 87%
    03:00 +5°C° 0 mm 0 mps 735 mmHg 87%
    04:00 +5°C° 0 mm 0 mps 735 mmHg 88%
    05:00 +6°C° 0 mm 0 mps 735 mmHg 88%
    06:00 +6°C° 0 mm 0 mps 735 mmHg 88%
    07:00 +6°C° 0 mm 0 mps 735 mmHg 88%
    08:00 +8°C° 0 mm 0 mps 735 mmHg 82%
    09:00 +11°C° 0 mm 1 mps 736 mmHg 76%
    10:00 +13°C° 0 mm 1 mps 736 mmHg 70%
    11:00 +14°C° 0 mm 1 mps 736 mmHg 67%
    12:00 +15°C° 0 mm 1 mps 735 mmHg 64%
    13:00 +16°C° 0 mm 1 mps 735 mmHg 61%
    14:00 +16°C° 0 mm 2 mps 735 mmHg 63%
    15:00 +15°C° 0 mm 2 mps 734 mmHg 65%
    16:00 +15°C° 0 mm 2 mps 734 mmHg 67%
    17:00 +13°C° 0 mm 2 mps 734 mmHg 74%
    18:00 +12°C° 0 mm 1 mps 733 mmHg 80%
    19:00 +11°C° 0 mm 1 mps 733 mmHg 87%
    20:00 +10°C° 0 mm 1 mps 733 mmHg 88%
    21:00 +10°C° 0 mm 1 mps 733 mmHg 90%
    22:00 +9°C° 0 mm 1 mps 733 mmHg 91%
    23:00 +9°C° 0 mm 1 mps 733 mmHg 91%

    Day after tomorrow, 23 March, Saturday

    Time Temperature Precipitation Wind Pressure Humidity
    00:00 +9°C° 0 mm 1 mps 733 mmHg 91%
    01:00 +8°C° 0 mm 1 mps 732 mmHg 92%
    02:00 +8°C° 0 mm 1 mps 732 mmHg 92%
    03:00 +8°C° 0 mm 1 mps 732 mmHg 92%
    04:00 +8°C° 0 mm 1 mps 731 mmHg 92%
    05:00 +8°C° 0 mm 1 mps 731 mmHg 91%
    06:00 +8°C° 0 mm 1 mps 731 mmHg 91%
    07:00 +8°C° 0 mm 1 mps 731 mmHg 90%
    08:00 +10°C° 0 mm 1 mps 731 mmHg 81%
    09:00 +12°C° 0 mm 1 mps 731 mmHg 73%
    10:00 +14°C° 0 mm 1 mps 731 mmHg 64%
    11:00 +15°C° 0 mm 2 mps 731 mmHg 60%
    12:00 +16°C° 0 mm 2 mps 731 mmHg 56%
    13:00 +17°C° 0 mm 2 mps 731 mmHg 52%
    14:00 +17°C° 0 mm 2 mps 730 mmHg 52%
    15:00 +17°C° 0 mm 2 mps 730 mmHg 51%
    16:00 +17°C° 0 mm 2 mps 730 mmHg 51%
    17:00 +16°C° 0 mm 1 mps 730 mmHg 57%
    18:00 +14°C° 0 mm 1 mps 729 mmHg 64%
    19:00 +13°C° 0 mm 1 mps 729 mmHg 70%
    20:00 +12°C° 0 mm 1 mps 730 mmHg 71%
    21:00 +12°C° 0 mm 1 mps 730 mmHg 72%
    22:00 +12°C° 0 mm 1 mps 730 mmHg 73%
    23:00 +12°C° 0 mm 1 mps 730 mmHg 78%

    24 March, Sunday

    Time Temperature Precipitation Wind Pressure Humidity
    00:00 +10°C° 0 mm 2 mps 730 mmHg 83%
    01:00 +10°C° 0 mm 3 mps 730 mmHg 88%
    02:00 +9°C° 0 mm 3 mps 730 mmHg 89%
    03:00 +9°C° 0 mm 3 mps 730 mmHg 90%
    04:00 +8°C° 0 mm 3 mps 730 mmHg 91%
    05:00 +8°C° 0 mm 3 mps 730 mmHg 91%
    06:00 +7°C° 0 mm 3 mps 730 mmHg 90%
    07:00 +7°C° 0 mm 3 mps 730 mmHg 89%
    08:00 +7°C° 0 mm 3 mps 730 mmHg 86%
    09:00 +7°C° 0 mm 2 mps 730 mmHg 83%
    10:00 +7°C° 0 mm 2 mps 730 mmHg 81%
    11:00 +8°C° 0 mm 2 mps 730 mmHg 78%
    12:00 +8°C° 0 mm 2 mps 730 mmHg 76%
    13:00 +9°C° 0 mm 2 mps 729 mmHg 74%
    14:00 +9°C° 0 mm 2 mps 729 mmHg 73%
    15:00 +10°C° 0 mm 2 mps 728 mmHg 72%
    16:00 +11°C° 0 mm 1 mps 727 mmHg 72%
    17:00 +10°C° 0 mm 1 mps 727 mmHg 77%
    18:00 +9°C° 0 mm 1 mps 727 mmHg 82%
    19:00 +8°C° 0 mm 1 mps 727 mmHg 87%
    20:00 +8°C° 0.4 mm 1 mps 727 mmHg 87%
    21:00 +8°C° 0.4 mm 1 mps 726 mmHg 87%
    22:00 +8°C° 0.4 mm 1 mps 726 mmHg 88%
    23:00 +7°C° 0.1 mm 1 mps 726 mmHg 89%

    25 March, Monday

    Time Temperature Precipitation Wind Pressure Humidity
    00:00 +7°C° 0.1 mm 1 mps 726 mmHg 90%
    01:00 +6°C° 0.1 mm 1 mps 726 mmHg 91%
    02:00 +6°C° 0.2 mm 1 mps 726 mmHg 90%
    03:00 +6°C° 0.2 mm 1 mps 726 mmHg 88%
    04:00 +6°C° 0.2 mm 1 mps 726 mmHg 86%
    05:00 +5°C° 0 mm 1 mps 726 mmHg 84%
    06:00 +4°C° 0 mm 2 mps 726 mmHg 81%
    07:00 +3°C° 0 mm 2 mps 726 mmHg 78%
    08:00 +4°C° 0 mm 3 mps 726 mmHg 71%
    09:00 +5°C° 0 mm 3 mps 726 mmHg 64%
    10:00 +6°C° 0 mm 4 mps 726 mmHg 56%
    11:00 +6°C° 0 mm 5 mps 726 mmHg 55%
    12:00 +5°C° 0 mm 6 mps 725 mmHg 54%
    13:00 +7°C° 0 mm 6 mps 725 mmHg 52%
    14:00 +5°C° 0 mm 7 mps 724 mmHg 54%
    15:00 +5°C° 0 mm 7 mps 724 mmHg 57%
    16:00 +4°C° 0 mm 7 mps 723 mmHg 59%
    17:00 +3°C° 0.2 mm 6 mps 723 mmHg 62%
    18:00 +3°C° 0.2 mm 6 mps 723 mmHg 66%
    19:00 +2°C° 0.2 mm 5 mps 724 mmHg 69%
    20:00 +1°C° 0.1 mm 5 mps 724 mmHg 70%
    21:00 0°C° 0.1 mm 5 mps 724 mmHg 71%
    22:00 0°C° 0.1 mm 5 mps 724 mmHg 71%
    23:00 -2°C° 0.1 mm 6 mps 724 mmHg 71%

    26 March, Tuesday

    Time Temperature Precipitation Wind Pressure Humidity
    00:00 -2°C° 0.1 mm 6 mps 723 mmHg 71%
    01:00 -2°C° 0.1 mm 7 mps 723 mmHg 71%
    02:00 -3°C° 0.2 mm 7 mps 723 mmHg 70%
    03:00 -3°C° 0.2 mm 7 mps 723 mmHg 70%
    04:00 -3°C° 0.2 mm 7 mps 722 mmHg 69%
    05:00 -4°C° 0 mm 7 mps 723 mmHg 69%
    06:00 -4°C° 0 mm 7 mps 723 mmHg 69%
    07:00 -4°C° 0 mm 7 mps 723 mmHg 69%
    08:00 -4°C° 0 mm 8 mps 724 mmHg 65%
    09:00 -2°C° 0 mm 8 mps 724 mmHg 61%
    10:00 -1°C° 0 mm 9 mps 725 mmHg 57%
    11:00 -1°C° 0.1 mm 9 mps 725 mmHg 58%
    12:00 -1°C° 0.1 mm 8 mps 725 mmHg 58%
    13:00 0°C° 0.1 mm 8 mps 725 mmHg 58%
    14:00 0°C° 0.2 mm 8 mps 725 mmHg 62%
    15:00 0°C° 0.2 mm 8 mps 726 mmHg 65%
    16:00 0°C° 0.2 mm 8 mps 726 mmHg 68%
    17:00 -1°C° 0.1 mm 7 mps 727 mmHg 71%
    18:00 -1°C° 0.1 mm 7 mps 727 mmHg 73%
    19:00 -2°C° 0.1 mm 6 mps 728 mmHg 75%
    20:00 -1°C° 0 mm 5 mps 728 mmHg 78%
    21:00 -2°C° 0 mm 4 mps 729 mmHg 82%
    22:00 -1°C° 0 mm 3 mps 729 mmHg 85%
    23:00 -2°C° 0 mm 3 mps 730 mmHg 87%
    Show more